カタログに戻る

VELA 11/12 INTERSTAGE

Lost軍事HEO
NORAD 60002·PAYLOAD·🇺🇸 United States

打ち上げ Apr 8, 1970 から Cape Canaveral Space Force Station

Loading…

次のパス (今後24時間)

TLE

古いSource: Space-Track

元期: Jun 8, 2026, 20:48 UTC

1 60002U 70027D   26159.86688047 -.00000298  00000-0  00000+0 0  9993
2 60002  18.7333  33.0398 7962767 288.7071 359.0840  0.45904703 20944

AllMySatでVELA 11/12 INTERSTAGEをリアルタイム追跡

Download on the App Store